Year,Month,Day,Hour,Minute,Value (Times are PST for temperature in C)
2015,06,28,00,00,24.00
2015,06,28,00,01,23.90
2015,06,28,00,02,23.90
2015,06,28,00,04,23.90
2015,06,28,00,05,23.80
2015,06,28,00,06,23.80
2015,06,28,00,07,23.80
2015,06,28,00,08,23.80
2015,06,28,00,09,23.80
2015,06,28,00,10,23.70
2015,06,28,00,11,23.70
2015,06,28,00,12,23.70
2015,06,28,00,13,23.60
2015,06,28,00,14,23.50
2015,06,28,00,15,23.40
2015,06,28,00,16,23.40
2015,06,28,00,17,23.30
2015,06,28,00,19,23.30
2015,06,28,00,20,23.20
2015,06,28,00,21,23.20
2015,06,28,00,22,23.10
2015,06,28,00,23,23.10
2015,06,28,00,24,23.10
2015,06,28,00,25,23.00
2015,06,28,00,26,22.90
2015,06,28,00,27,22.90
2015,06,28,00,28,22.80
2015,06,28,00,29,22.80
2015,06,28,00,30,22.80
2015,06,28,00,31,22.70
2015,06,28,00,32,22.70
2015,06,28,00,33,22.70
2015,06,28,00,34,22.60
2015,06,28,00,35,22.60
2015,06,28,00,36,22.60
2015,06,28,00,37,22.60
2015,06,28,00,38,22.50
2015,06,28,00,39,22.50
2015,06,28,00,40,22.40
2015,06,28,00,41,22.40
2015,06,28,00,42,22.40
2015,06,28,00,43,22.40
2015,06,28,00,44,22.40
2015,06,28,00,45,22.30
2015,06,28,00,46,22.30
2015,06,28,00,47,22.30
2015,06,28,00,48,22.30
2015,06,28,00,49,22.30
2015,06,28,00,50,22.30
2015,06,28,00,51,22.30
2015,06,28,00,52,22.20
2015,06,28,00,53,22.20
2015,06,28,00,54,22.20
2015,06,28,00,55,22.20
2015,06,28,00,56,22.20
2015,06,28,00,57,22.20
2015,06,28,00,58,22.10
2015,06,28,00,59,22.10
2015,06,28,01,01,22.00
2015,06,28,01,03,21.90
2015,06,28,01,04,21.90
2015,06,28,01,05,21.90
2015,06,28,01,06,21.80
2015,06,28,01,07,21.80
2015,06,28,01,08,21.80
2015,06,28,01,10,21.70
2015,06,28,01,11,21.70
2015,06,28,01,12,21.60
2015,06,28,01,13,21.60
2015,06,28,01,14,21.60
2015,06,28,01,15,21.50
2015,06,28,01,17,21.40
2015,06,28,01,19,21.30
2015,06,28,01,20,21.30
2015,06,28,01,21,21.30
2015,06,28,01,22,21.30
2015,06,28,01,23,21.30
2015,06,28,01,24,21.30
2015,06,28,01,25,21.30
2015,06,28,01,26,21.20
2015,06,28,01,27,21.20
2015,06,28,01,28,21.20
2015,06,28,01,29,21.20
2015,06,28,01,30,21.20
2015,06,28,01,31,21.20
2015,06,28,01,32,21.20
2015,06,28,01,33,21.20
2015,06,28,01,34,21.20
2015,06,28,01,35,21.20
2015,06,28,01,36,21.20
2015,06,28,01,37,21.20
2015,06,28,01,39,21.10
2015,06,28,01,40,21.10
2015,06,28,01,41,21.10
2015,06,28,01,42,21.10
2015,06,28,01,43,21.10
2015,06,28,01,44,21.10
2015,06,28,01,45,21.10
2015,06,28,01,46,21.10
2015,06,28,01,47,21.10
2015,06,28,01,48,21.00
2015,06,28,01,49,21.00
2015,06,28,01,50,21.00
2015,06,28,01,51,21.00
2015,06,28,01,52,20.90
2015,06,28,01,53,20.90
2015,06,28,01,54,20.90
2015,06,28,01,55,20.90
2015,06,28,01,56,20.80
2015,06,28,01,57,20.80
2015,06,28,01,58,20.80
2015,06,28,01,59,20.80
2015,06,28,02,00,20.80
2015,06,28,02,01,20.80
2015,06,28,02,02,20.70
2015,06,28,02,03,20.70
2015,06,28,02,04,20.70
2015,06,28,02,05,20.70
2015,06,28,02,06,20.70
2015,06,28,02,07,20.60
2015,06,28,02,08,20.60
2015,06,28,02,09,20.60
2015,06,28,02,10,20.60
2015,06,28,02,11,20.50
2015,06,28,02,12,20.50
2015,06,28,02,13,20.50
2015,06,28,02,14,20.50
2015,06,28,02,15,20.50
2015,06,28,02,16,20.50
2015,06,28,02,17,20.50
2015,06,28,02,18,20.50
2015,06,28,02,19,20.40
2015,06,28,02,20,20.40
2015,06,28,02,21,20.40
2015,06,28,02,22,20.40
2015,06,28,02,23,20.40
2015,06,28,02,24,20.40
2015,06,28,02,25,20.30
2015,06,28,02,26,20.30
2015,06,28,02,27,20.30
2015,06,28,02,28,20.30
2015,06,28,02,29,20.30
2015,06,28,02,30,20.30
2015,06,28,02,31,20.30
2015,06,28,02,32,20.30
2015,06,28,02,33,20.20
2015,06,28,02,34,20.20
2015,06,28,02,35,20.20
2015,06,28,02,36,20.20
2015,06,28,02,37,20.20
2015,06,28,02,38,20.10
2015,06,28,02,39,20.10
2015,06,28,02,40,20.10
2015,06,28,02,41,20.10
2015,06,28,02,42,20.10
2015,06,28,02,43,20.10
2015,06,28,02,44,20.10
2015,06,28,02,45,20.00
2015,06,28,02,46,20.00
2015,06,28,02,47,19.90
2015,06,28,02,48,19.90
2015,06,28,02,49,19.90
2015,06,28,02,50,19.80
2015,06,28,02,51,19.80
2015,06,28,02,52,19.80
2015,06,28,02,53,19.80
2015,06,28,02,54,19.70
2015,06,28,02,55,19.70
2015,06,28,02,56,19.70
2015,06,28,02,57,19.70
2015,06,28,02,58,19.60
2015,06,28,02,59,19.60
2015,06,28,03,00,19.60
2015,06,28,03,01,19.50
2015,06,28,03,03,19.40
2015,06,28,03,04,19.40
2015,06,28,03,05,19.30
2015,06,28,03,06,19.30
2015,06,28,03,07,19.30
2015,06,28,03,08,19.20
2015,06,28,03,09,19.20
2015,06,28,03,10,19.20
2015,06,28,03,11,19.10
2015,06,28,03,12,19.10
2015,06,28,03,13,19.10
2015,06,28,03,14,19.00
2015,06,28,03,15,19.00
2015,06,28,03,16,18.90
2015,06,28,03,17,18.90
2015,06,28,03,19,18.90
2015,06,28,03,22,18.80
2015,06,28,03,23,18.80
2015,06,28,03,24,18.70
2015,06,28,03,25,18.70
2015,06,28,03,26,18.70
2015,06,28,03,27,18.70
2015,06,28,03,28,18.70
2015,06,28,03,29,18.60
2015,06,28,03,30,18.60
2015,06,28,03,31,18.60
2015,06,28,03,32,18.50
2015,06,28,03,33,18.50
2015,06,28,03,34,18.40
2015,06,28,03,35,18.40
2015,06,28,03,36,18.40
2015,06,28,03,37,18.40
2015,06,28,03,38,18.30
2015,06,28,03,39,18.30
2015,06,28,03,40,18.30
2015,06,28,03,41,18.30
2015,06,28,03,42,18.20
2015,06,28,03,43,18.20
2015,06,28,03,44,18.20
2015,06,28,03,45,18.20
2015,06,28,03,46,18.20
2015,06,28,03,47,18.20
2015,06,28,03,48,18.20
2015,06,28,03,49,18.10
2015,06,28,03,50,18.20
2015,06,28,03,51,18.10
2015,06,28,03,52,18.10
2015,06,28,03,53,18.10
2015,06,28,03,54,18.10
2015,06,28,03,55,18.10
2015,06,28,03,56,18.10
2015,06,28,03,57,18.10
2015,06,28,03,58,18.10
2015,06,28,03,59,18.00
2015,06,28,04,00,18.00
2015,06,28,04,01,18.00
2015,06,28,04,03,17.90
2015,06,28,04,04,17.90
2015,06,28,04,05,17.90
2015,06,28,04,06,17.90
2015,06,28,04,07,17.80
2015,06,28,04,08,17.80
2015,06,28,04,09,17.80
2015,06,28,04,10,17.80
2015,06,28,04,11,17.80
2015,06,28,04,12,17.80
2015,06,28,04,13,17.70
2015,06,28,04,14,17.70
2015,06,28,04,15,17.70
2015,06,28,04,16,17.70
2015,06,28,04,17,17.70
2015,06,28,04,18,17.70
2015,06,28,04,19,17.70
2015,06,28,04,20,17.70
2015,06,28,04,21,17.70
2015,06,28,04,22,17.70
2015,06,28,04,23,17.70
2015,06,28,04,24,17.70
2015,06,28,04,25,17.60
2015,06,28,04,26,17.60
2015,06,28,04,27,17.60
2015,06,28,04,28,17.60
2015,06,28,04,29,17.60
2015,06,28,04,30,17.60
2015,06,28,04,31,17.60
2015,06,28,04,32,17.60
2015,06,28,04,33,17.60
2015,06,28,04,34,17.60
2015,06,28,04,35,17.60
2015,06,28,04,36,17.60
2015,06,28,04,37,17.60
2015,06,28,04,38,17.50
2015,06,28,04,39,17.50
2015,06,28,04,40,17.50
2015,06,28,04,41,17.50
2015,06,28,04,42,17.50
2015,06,28,04,43,17.50
2015,06,28,04,44,17.50
2015,06,28,04,45,17.50
2015,06,28,04,46,17.50
2015,06,28,04,47,17.50
2015,06,28,04,48,17.50
2015,06,28,04,49,17.50
2015,06,28,04,50,17.50
2015,06,28,04,51,17.40
2015,06,28,04,52,17.40
2015,06,28,04,53,17.40
2015,06,28,04,54,17.40
2015,06,28,04,56,17.40
2015,06,28,04,57,17.40
2015,06,28,04,58,17.40
2015,06,28,04,59,17.30
2015,06,28,05,00,17.30
2015,06,28,05,01,17.30
2015,06,28,05,03,17.30
2015,06,28,05,04,17.30
2015,06,28,05,05,17.30
2015,06,28,05,06,17.30
2015,06,28,05,07,17.30
2015,06,28,05,08,17.20
2015,06,28,05,09,17.20
2015,06,28,05,10,17.20
2015,06,28,05,11,17.20
2015,06,28,05,12,17.20
2015,06,28,05,13,17.20
2015,06,28,05,14,17.20
2015,06,28,05,15,17.20
2015,06,28,05,16,17.20
2015,06,28,05,17,17.10
2015,06,28,05,18,17.10
2015,06,28,05,19,17.10
2015,06,28,05,20,17.10
2015,06,28,05,21,17.10
2015,06,28,05,22,17.10
2015,06,28,05,23,17.10
2015,06,28,05,24,17.10
2015,06,28,05,25,17.10
2015,06,28,05,26,17.10
2015,06,28,05,27,17.10
2015,06,28,05,28,17.10
2015,06,28,05,31,17.10
2015,06,28,05,32,17.10
2015,06,28,05,33,17.10
2015,06,28,05,36,17.00
2015,06,28,05,37,16.90
2015,06,28,05,38,16.90
2015,06,28,05,39,16.90
2015,06,28,05,40,16.90
2015,06,28,05,41,16.90
2015,06,28,05,42,16.90
2015,06,28,05,43,16.90
2015,06,28,05,44,16.90
2015,06,28,05,45,16.80
2015,06,28,05,46,16.80
2015,06,28,05,47,16.80
2015,06,28,05,48,16.80
2015,06,28,05,49,16.80
2015,06,28,05,50,16.80
2015,06,28,05,51,16.80
2015,06,28,05,52,16.80
2015,06,28,05,53,16.80
2015,06,28,05,54,16.80
2015,06,28,05,55,16.80
2015,06,28,05,56,16.80
2015,06,28,05,57,16.80
2015,06,28,06,00,16.80
2015,06,28,06,01,16.80
2015,06,28,06,03,16.80
2015,06,28,06,04,16.80
2015,06,28,06,05,16.80
2015,06,28,06,06,16.80
2015,06,28,06,07,16.70
2015,06,28,06,08,16.70
2015,06,28,06,09,16.70
2015,06,28,06,10,16.70
2015,06,28,06,11,16.70
2015,06,28,06,12,16.70
2015,06,28,06,13,16.70
2015,06,28,06,14,16.60
2015,06,28,06,15,16.60
2015,06,28,06,16,16.60
2015,06,28,06,17,16.70
2015,06,28,06,18,16.70
2015,06,28,06,19,16.70
2015,06,28,06,20,16.70
2015,06,28,06,21,16.70
2015,06,28,06,22,16.70
2015,06,28,06,23,16.80
2015,06,28,06,24,16.80
2015,06,28,06,25,16.80
2015,06,28,06,26,16.80
2015,06,28,06,27,16.80
2015,06,28,06,28,16.90
2015,06,28,06,29,16.90
2015,06,28,06,30,16.90
2015,06,28,06,31,17.00
2015,06,28,06,32,17.00
2015,06,28,06,33,17.10
2015,06,28,06,34,17.10
2015,06,28,06,35,17.20
2015,06,28,06,36,17.20
2015,06,28,06,37,17.30
2015,06,28,06,38,17.30
2015,06,28,06,39,17.30
2015,06,28,06,40,17.40
2015,06,28,06,41,17.40
2015,06,28,06,42,17.50
2015,06,28,06,45,17.70
2015,06,28,06,46,17.70
2015,06,28,06,47,17.80
2015,06,28,06,48,17.80
2015,06,28,06,49,17.90
2015,06,28,06,50,18.00
2015,06,28,06,51,18.00
2015,06,28,06,52,18.10
2015,06,28,06,53,18.20
2015,06,28,06,54,18.20
2015,06,28,06,55,18.30
2015,06,28,06,56,18.30
2015,06,28,06,57,18.40
2015,06,28,06,58,18.50
2015,06,28,06,59,18.60
2015,06,28,07,00,18.60
2015,06,28,07,01,18.70
2015,06,28,07,02,18.80
2015,06,28,07,03,18.90
2015,06,28,07,04,18.90
2015,06,28,07,05,19.10
2015,06,28,07,06,19.10
2015,06,28,07,07,19.20
2015,06,28,07,08,19.30
2015,06,28,07,09,19.40
2015,06,28,07,10,19.50
2015,06,28,07,11,19.60
2015,06,28,07,12,19.60
2015,06,28,07,13,19.70
2015,06,28,07,14,19.80
2015,06,28,07,15,19.80
2015,06,28,07,16,19.90
2015,06,28,07,17,20.00
2015,06,28,07,18,20.10
2015,06,28,07,19,20.20
2015,06,28,07,20,20.20
2015,06,28,07,21,20.20
2015,06,28,07,22,20.30
2015,06,28,07,23,20.30
2015,06,28,07,24,20.40
2015,06,28,07,25,20.40
2015,06,28,07,26,20.50
2015,06,28,07,27,20.60
2015,06,28,07,28,20.70
2015,06,28,07,29,20.80
2015,06,28,07,30,20.90
2015,06,28,07,31,21.10
2015,06,28,07,32,21.20
2015,06,28,07,34,21.40
2015,06,28,07,35,21.60
2015,06,28,07,36,21.70
2015,06,28,07,37,21.70
2015,06,28,07,38,21.80
2015,06,28,07,39,21.80
2015,06,28,07,40,21.80
2015,06,28,07,41,21.80
2015,06,28,07,42,21.80
2015,06,28,07,43,21.80
2015,06,28,07,44,21.80
2015,06,28,07,45,21.80
2015,06,28,07,46,21.80
2015,06,28,07,47,21.80
2015,06,28,07,48,21.80
2015,06,28,07,49,21.80
2015,06,28,07,50,21.80
2015,06,28,07,51,21.80
2015,06,28,07,52,21.80
2015,06,28,07,53,21.90
2015,06,28,07,54,21.90
2015,06,28,07,55,22.00
2015,06,28,07,56,22.10
2015,06,28,07,57,22.20
2015,06,28,07,58,22.30
2015,06,28,07,59,22.30
2015,06,28,08,00,22.40
2015,06,28,08,01,22.40
2015,06,28,08,02,22.50
2015,06,28,08,03,22.50
2015,06,28,08,04,22.60
2015,06,28,08,05,22.60
2015,06,28,08,06,22.60
2015,06,28,08,07,22.60
2015,06,28,08,08,22.60
2015,06,28,08,09,22.60
2015,06,28,08,10,22.60
2015,06,28,08,11,22.60
2015,06,28,08,12,22.60
2015,06,28,08,13,22.70
2015,06,28,08,14,22.70
2015,06,28,08,15,22.80
2015,06,28,08,16,22.80
2015,06,28,08,17,22.90
2015,06,28,08,18,23.10
2015,06,28,08,19,23.20
2015,06,28,08,20,23.20
2015,06,28,08,21,23.30
2015,06,28,08,22,23.30
2015,06,28,08,23,23.30
2015,06,28,08,24,23.30
2015,06,28,08,25,23.30
2015,06,28,08,26,23.30
2015,06,28,08,27,23.30
2015,06,28,08,28,23.30
2015,06,28,08,29,23.30
2015,06,28,08,30,23.30
2015,06,28,08,31,23.30
2015,06,28,08,32,23.40
2015,06,28,08,33,23.40
2015,06,28,08,34,23.60
2015,06,28,08,35,23.70
2015,06,28,08,36,23.70
2015,06,28,08,37,23.80
2015,06,28,08,38,23.90
2015,06,28,08,39,24.00
2015,06,28,08,40,24.10
2015,06,28,08,41,24.10
2015,06,28,08,42,24.10
2015,06,28,08,43,24.20
2015,06,28,08,44,24.20
2015,06,28,08,45,24.20
2015,06,28,08,46,24.30
2015,06,28,08,47,24.40
2015,06,28,08,48,24.50
2015,06,28,08,49,24.60
2015,06,28,08,50,24.60
2015,06,28,08,51,24.70
2015,06,28,08,52,24.80
2015,06,28,08,53,24.80
2015,06,28,08,54,24.90
2015,06,28,08,55,25.00
2015,06,28,08,56,25.10
2015,06,28,08,57,25.10
2015,06,28,08,58,25.20
2015,06,28,08,59,25.30
2015,06,28,09,00,25.40
2015,06,28,09,01,25.60
2015,06,28,09,02,25.70
2015,06,28,09,03,25.80
2015,06,28,09,04,25.80
2015,06,28,09,05,25.90
2015,06,28,09,06,26.10
2015,06,28,09,07,26.10
2015,06,28,09,08,26.20
2015,06,28,09,09,26.20
2015,06,28,09,10,26.30
2015,06,28,09,11,26.30
2015,06,28,09,12,26.30
2015,06,28,09,13,26.40
2015,06,28,09,14,26.40
2015,06,28,09,15,26.40
2015,06,28,09,16,26.40
2015,06,28,09,17,26.40
2015,06,28,09,18,26.50
2015,06,28,09,19,26.50
2015,06,28,09,20,26.50
2015,06,28,09,21,26.60
2015,06,28,09,22,26.60
2015,06,28,09,23,26.60
2015,06,28,09,24,26.60
2015,06,28,09,25,26.50
2015,06,28,09,26,26.50
2015,06,28,09,28,26.50
2015,06,28,09,29,26.50
2015,06,28,09,30,26.60
2015,06,28,09,31,26.60
2015,06,28,09,32,26.70
2015,06,28,09,33,26.70
2015,06,28,09,34,26.70
2015,06,28,09,35,26.60
2015,06,28,09,36,26.60
2015,06,28,09,37,26.60
2015,06,28,09,38,26.60
2015,06,28,09,39,26.60
2015,06,28,09,40,26.60
2015,06,28,09,41,26.60
2015,06,28,09,42,26.60
2015,06,28,09,43,26.50
2015,06,28,09,44,26.60
2015,06,28,09,45,26.60
2015,06,28,09,46,26.60
2015,06,28,09,47,26.70
2015,06,28,09,48,26.70
2015,06,28,09,49,26.80
2015,06,28,09,50,26.80
2015,06,28,09,51,26.90
2015,06,28,09,52,27.10
2015,06,28,09,53,27.20
2015,06,28,09,54,27.20
2015,06,28,09,55,27.30
2015,06,28,09,56,27.40
2015,06,28,09,57,27.50
2015,06,28,09,58,27.60
2015,06,28,09,59,27.70
2015,06,28,10,00,27.80
2015,06,28,10,01,27.90
2015,06,28,10,02,28.00
2015,06,28,10,03,28.10
2015,06,28,10,04,28.10
2015,06,28,10,05,28.20
2015,06,28,10,06,28.20
2015,06,28,10,07,28.30
2015,06,28,10,08,28.30
2015,06,28,10,09,28.30
2015,06,28,10,10,28.40
2015,06,28,10,11,28.40
2015,06,28,10,12,28.40
2015,06,28,10,13,28.50
2015,06,28,10,14,28.60
2015,06,28,10,15,28.60
2015,06,28,10,16,28.70
2015,06,28,10,17,28.70
2015,06,28,10,18,28.80
2015,06,28,10,19,28.90
2015,06,28,10,20,28.90
2015,06,28,10,21,29.10
2015,06,28,10,22,29.10
2015,06,28,10,23,29.20
2015,06,28,10,24,29.20
2015,06,28,10,25,29.30
2015,06,28,10,26,29.40
2015,06,28,10,27,29.50
2015,06,28,10,28,29.70
2015,06,28,10,29,29.80
2015,06,28,10,30,29.90
2015,06,28,10,31,30.00
2015,06,28,10,32,30.10
2015,06,28,10,33,30.20
2015,06,28,10,34,30.30
2015,06,28,10,35,30.30
2015,06,28,10,36,30.40
2015,06,28,10,37,30.50
2015,06,28,10,38,30.60
2015,06,28,10,39,30.70
2015,06,28,10,40,30.80
2015,06,28,10,41,30.80
2015,06,28,10,42,30.90
2015,06,28,10,43,31.00
2015,06,28,10,44,31.10
2015,06,28,10,45,31.20
2015,06,28,10,46,31.20
2015,06,28,10,47,31.30
2015,06,28,10,48,31.30
2015,06,28,10,49,31.40
2015,06,28,10,50,31.50
2015,06,28,10,51,31.60
2015,06,28,10,52,31.60
2015,06,28,10,53,31.70
2015,06,28,10,54,31.70
2015,06,28,10,55,31.70
2015,06,28,10,56,31.80
2015,06,28,10,57,31.80
2015,06,28,10,58,31.90
2015,06,28,10,59,32.00
2015,06,28,11,00,32.10
2015,06,28,11,01,32.20
2015,06,28,11,02,32.30
2015,06,28,11,03,32.30
2015,06,28,11,04,32.30
2015,06,28,11,05,32.30
2015,06,28,11,06,32.40
2015,06,28,11,07,32.40
2015,06,28,11,08,32.40
2015,06,28,11,09,32.60
2015,06,28,11,10,32.60
2015,06,28,11,11,32.60
2015,06,28,11,14,32.70
2015,06,28,11,15,32.70
2015,06,28,11,16,32.70
2015,06,28,11,17,32.80
2015,06,28,11,18,32.80
2015,06,28,11,19,32.80
2015,06,28,11,20,32.90
2015,06,28,11,21,32.90
2015,06,28,11,22,32.90
2015,06,28,11,23,32.80
2015,06,28,11,24,32.80
2015,06,28,11,25,32.80
2015,06,28,11,26,32.70
2015,06,28,11,27,32.70
2015,06,28,11,28,32.70
2015,06,28,11,29,32.70
2015,06,28,11,30,32.70
2015,06,28,11,31,32.70
2015,06,28,11,32,32.70
2015,06,28,11,34,32.60
2015,06,28,11,35,32.70
2015,06,28,11,37,32.70
2015,06,28,11,38,32.80
2015,06,28,11,39,32.80
2015,06,28,11,42,33.10
2015,06,28,11,43,33.10
2015,06,28,11,44,33.20
2015,06,28,11,45,33.30
2015,06,28,11,46,33.30
2015,06,28,11,47,33.40
2015,06,28,11,48,33.60
2015,06,28,11,49,33.70
2015,06,28,11,50,33.80
2015,06,28,11,51,33.80
2015,06,28,11,52,33.80
2015,06,28,11,53,33.80
2015,06,28,11,54,33.80
2015,06,28,11,55,33.80
2015,06,28,11,56,33.70
2015,06,28,11,57,33.70
2015,06,28,11,58,33.70
2015,06,28,11,59,33.60
2015,06,28,12,00,33.60
2015,06,28,12,01,33.50
2015,06,28,12,02,33.40
2015,06,28,12,03,33.40
2015,06,28,12,04,33.40
2015,06,28,12,05,33.40
2015,06,28,12,06,33.40
2015,06,28,12,07,33.50
2015,06,28,12,08,33.40
2015,06,28,12,09,33.40
2015,06,28,12,10,33.40
2015,06,28,12,11,33.40
2015,06,28,12,12,33.40
2015,06,28,12,13,33.30
2015,06,28,12,14,33.30
2015,06,28,12,15,33.30
2015,06,28,12,16,33.30
2015,06,28,12,17,33.30
2015,06,28,12,18,33.30
2015,06,28,12,19,33.30
2015,06,28,12,20,33.20
2015,06,28,12,21,33.30
2015,06,28,12,22,33.30
2015,06,28,12,23,33.30
2015,06,28,12,26,33.40
2015,06,28,12,27,33.40
2015,06,28,12,28,33.60
2015,06,28,12,29,33.60
2015,06,28,12,30,33.70
2015,06,28,12,31,33.70
2015,06,28,12,32,33.70
2015,06,28,12,33,33.80
2015,06,28,12,34,33.80
2015,06,28,12,35,33.80
2015,06,28,12,36,33.80
2015,06,28,12,37,33.90
2015,06,28,12,38,33.90
2015,06,28,12,39,33.90
2015,06,28,12,40,34.00
2015,06,28,12,41,34.00
2015,06,28,12,42,33.90
2015,06,28,12,43,33.80
2015,06,28,12,44,33.80
2015,06,28,12,45,33.70
2015,06,28,12,48,33.50
2015,06,28,12,49,33.40
2015,06,28,12,50,33.30
2015,06,28,12,51,33.30
2015,06,28,12,52,33.20
2015,06,28,12,53,33.10
2015,06,28,12,54,33.00
2015,06,28,12,55,32.80
2015,06,28,12,56,32.70
2015,06,28,12,57,32.60
2015,06,28,12,58,32.50
2015,06,28,12,59,32.30
2015,06,28,13,00,32.30
2015,06,28,13,01,32.20
2015,06,28,13,02,32.10
2015,06,28,13,03,32.10
2015,06,28,13,04,31.90
2015,06,28,13,05,31.80
2015,06,28,13,06,31.70
2015,06,28,13,07,31.70
2015,06,28,13,08,31.60
2015,06,28,13,09,31.60
2015,06,28,13,10,31.50
2015,06,28,13,11,31.50
2015,06,28,13,12,31.50
2015,06,28,13,13,31.50
2015,06,28,13,14,31.50
2015,06,28,13,15,31.40
2015,06,28,13,16,31.40
2015,06,28,13,17,31.40
2015,06,28,13,18,31.30
2015,06,28,13,19,31.30
2015,06,28,13,20,31.30
2015,06,28,13,21,31.30
2015,06,28,13,22,31.40
2015,06,28,13,23,31.40
2015,06,28,13,24,31.40
2015,06,28,13,25,31.40
2015,06,28,13,26,31.40
2015,06,28,13,27,31.40
2015,06,28,13,28,31.30
2015,06,28,13,29,31.30
2015,06,28,13,30,31.30
2015,06,28,13,31,31.30
2015,06,28,13,32,31.20
2015,06,28,13,33,31.20
2015,06,28,13,34,31.10
2015,06,28,13,35,31.10
2015,06,28,13,36,30.90
2015,06,28,13,37,30.90
2015,06,28,13,38,30.80
2015,06,28,13,39,30.80
2015,06,28,13,40,30.70
2015,06,28,13,41,30.70
2015,06,28,13,42,30.60
2015,06,28,13,43,30.60
2015,06,28,13,44,30.60
2015,06,28,13,45,30.60
2015,06,28,13,46,30.60
2015,06,28,13,47,30.60
2015,06,28,13,48,30.50
2015,06,28,13,49,30.60
2015,06,28,13,50,30.50
2015,06,28,13,51,30.40
2015,06,28,13,52,30.30
2015,06,28,13,53,30.30
2015,06,28,13,54,30.30
2015,06,28,13,55,30.30
2015,06,28,13,56,30.20
2015,06,28,13,57,30.20
2015,06,28,13,58,30.20
2015,06,28,13,59,30.20
2015,06,28,14,00,30.20
2015,06,28,14,01,30.10
2015,06,28,14,02,30.10
2015,06,28,14,03,30.10
2015,06,28,14,04,30.10
2015,06,28,14,05,30.00
2015,06,28,14,06,30.00
2015,06,28,14,07,30.00
2015,06,28,14,08,30.00
2015,06,28,14,09,30.00
2015,06,28,14,10,30.00
2015,06,28,14,11,30.10
2015,06,28,14,12,30.10
2015,06,28,14,13,30.10
2015,06,28,14,14,30.10
2015,06,28,14,15,30.10
2015,06,28,14,16,30.20
2015,06,28,14,17,30.20
2015,06,28,14,18,30.20
2015,06,28,14,19,30.20
2015,06,28,14,20,30.20
2015,06,28,14,21,30.20
2015,06,28,14,22,30.10
2015,06,28,14,23,30.10
2015,06,28,14,24,30.00
2015,06,28,14,27,29.90
2015,06,28,14,28,29.80
2015,06,28,14,29,29.80
2015,06,28,14,30,29.80
2015,06,28,14,31,29.80
2015,06,28,14,32,29.80
2015,06,28,14,33,29.80
2015,06,28,14,34,29.80
2015,06,28,14,35,29.80
2015,06,28,14,36,29.90
2015,06,28,14,37,29.90
2015,06,28,14,38,29.90
2015,06,28,14,39,29.90
2015,06,28,14,40,29.80
2015,06,28,14,41,29.90
2015,06,28,14,42,29.90
2015,06,28,14,43,29.90
2015,06,28,14,44,29.90
2015,06,28,14,45,29.90
2015,06,28,14,46,29.90
2015,06,28,14,47,29.90
2015,06,28,14,48,30.00
2015,06,28,14,49,30.10
2015,06,28,14,50,30.10
2015,06,28,14,51,30.20
2015,06,28,14,52,30.20
2015,06,28,14,53,30.20
2015,06,28,14,54,30.20
2015,06,28,14,55,30.20
2015,06,28,14,56,30.30
2015,06,28,14,57,30.30
2015,06,28,15,56,30.40
2015,06,28,16,56,30.30
2015,06,28,17,10,30.20
2015,06,28,17,14,30.20
2015,06,28,17,15,30.30
2015,06,28,17,16,30.30
2015,06,28,17,17,30.30
2015,06,28,17,19,30.40
2015,06,28,17,21,30.40
2015,06,28,17,24,30.60
2015,06,28,17,25,30.60
2015,06,28,17,26,30.70
2015,06,28,17,27,30.70
2015,06,28,17,28,30.70
2015,06,28,17,29,30.80
2015,06,28,17,30,30.80
2015,06,28,17,31,30.80
2015,06,28,17,32,30.90
2015,06,28,17,33,30.90
2015,06,28,17,34,30.90
2015,06,28,17,35,30.90
2015,06,28,17,36,31.00
2015,06,28,17,37,31.00
2015,06,28,17,38,31.00
2015,06,28,17,39,31.00
2015,06,28,17,40,31.00
2015,06,28,17,41,31.00
2015,06,28,17,42,30.90
2015,06,28,17,43,30.90
2015,06,28,17,44,30.80
2015,06,28,17,45,30.80
2015,06,28,17,46,30.70
2015,06,28,17,47,30.60
2015,06,28,17,48,30.50
2015,06,28,17,49,30.40
2015,06,28,17,50,30.40
2015,06,28,17,51,30.30
2015,06,28,17,52,30.30
2015,06,28,17,53,30.20
2015,06,28,17,54,30.20
2015,06,28,17,55,30.10
2015,06,28,17,56,30.10
2015,06,28,17,57,30.00
2015,06,28,17,58,29.90
2015,06,28,17,59,29.90
2015,06,28,18,00,29.90
2015,06,28,18,01,29.80
2015,06,28,18,03,29.70
2015,06,28,18,04,29.70
2015,06,28,18,05,29.70
2015,06,28,18,06,29.60
2015,06,28,18,07,29.40
2015,06,28,18,09,29.30
2015,06,28,18,10,29.20
2015,06,28,18,11,29.10
2015,06,28,18,12,28.90
2015,06,28,18,13,28.90
2015,06,28,18,14,28.80
2015,06,28,18,15,28.80
2015,06,28,18,16,28.80
2015,06,28,18,17,28.80
2015,06,28,18,18,28.70
2015,06,28,18,19,28.70
2015,06,28,18,20,28.70
2015,06,28,18,21,28.70
2015,06,28,18,22,28.80
2015,06,28,18,23,28.80
2015,06,28,18,24,28.80
2015,06,28,18,25,28.90
2015,06,28,18,26,28.90
2015,06,28,18,27,29.10
2015,06,28,18,28,29.10
2015,06,28,18,29,29.20
2015,06,28,18,30,29.20
2015,06,28,18,31,29.30
2015,06,28,18,32,29.30
2015,06,28,18,33,29.30
2015,06,28,18,34,29.40
2015,06,28,18,35,29.50
2015,06,28,18,36,29.60
2015,06,28,18,37,29.60
2015,06,28,18,38,29.70
2015,06,28,18,39,29.70
2015,06,28,18,40,29.80
2015,06,28,18,41,29.80
2015,06,28,18,42,29.90
2015,06,28,18,43,29.90
2015,06,28,18,44,29.90
2015,06,28,18,45,29.90
2015,06,28,18,46,29.80
2015,06,28,18,47,29.80
2015,06,28,18,48,29.80
2015,06,28,18,49,29.80
2015,06,28,18,50,29.80
2015,06,28,18,51,29.80
2015,06,28,18,52,29.70
2015,06,28,18,53,29.70
2015,06,28,18,54,29.60
2015,06,28,18,55,29.60
2015,06,28,18,56,29.60
2015,06,28,18,57,29.40
2015,06,28,18,58,29.40
2015,06,28,18,59,29.30
2015,06,28,19,00,29.30
2015,06,28,19,01,29.20
2015,06,28,19,02,29.20
2015,06,28,19,03,29.10
2015,06,28,19,04,29.10
2015,06,28,19,05,29.10
2015,06,28,19,06,29.00
2015,06,28,19,07,29.00
2015,06,28,19,08,28.90
2015,06,28,19,09,28.90
2015,06,28,19,10,28.80
2015,06,28,19,11,28.80
2015,06,28,19,12,28.80
2015,06,28,19,13,28.80
2015,06,28,19,14,28.70
2015,06,28,19,15,28.70
2015,06,28,19,16,28.70
2015,06,28,19,17,28.70
2015,06,28,19,18,28.70
2015,06,28,19,19,28.70
2015,06,28,19,20,28.70
2015,06,28,19,21,28.70
2015,06,28,19,22,28.70
2015,06,28,19,23,28.70
2015,06,28,19,24,28.70
2015,06,28,19,25,28.70
2015,06,28,19,26,28.80
2015,06,28,19,27,28.80
2015,06,28,19,28,28.80
2015,06,28,19,29,28.80
2015,06,28,19,30,28.80
2015,06,28,19,31,28.80
2015,06,28,19,32,28.80
2015,06,28,19,33,28.80
2015,06,28,19,34,28.80
2015,06,28,19,35,28.80
2015,06,28,19,36,28.80
2015,06,28,19,37,28.80
2015,06,28,19,39,28.80
2015,06,28,19,40,28.80
2015,06,28,19,41,28.80
2015,06,28,19,42,28.80
2015,06,28,19,43,28.70
2015,06,28,19,44,28.70
2015,06,28,19,45,28.60
2015,06,28,19,46,28.50
2015,06,28,19,47,28.40
2015,06,28,19,48,28.30
2015,06,28,19,49,28.30
2015,06,28,19,50,28.20
2015,06,28,19,51,28.10
2015,06,28,19,52,28.10
2015,06,28,19,53,28.00
2015,06,28,19,54,27.90
2015,06,28,19,55,27.90
2015,06,28,19,56,27.90
2015,06,28,19,57,27.90
2015,06,28,19,58,27.90
2015,06,28,19,59,27.90
2015,06,28,20,00,27.90
2015,06,28,20,01,27.90
2015,06,28,20,02,27.90
2015,06,28,20,03,27.80
2015,06,28,20,04,27.70
2015,06,28,20,05,27.70
2015,06,28,20,06,27.50
2015,06,28,20,07,27.40
2015,06,28,20,08,27.20
2015,06,28,20,09,27.10
2015,06,28,20,10,27.00
2015,06,28,20,11,26.90
2015,06,28,20,12,26.80
2015,06,28,20,13,26.80
2015,06,28,20,15,26.70
2015,06,28,20,16,26.70
2015,06,28,20,17,26.70
2015,06,28,20,18,26.60